#timestamp,LO_Frequency,Hit,StdDev 
1637254815.2,286047002.4,P
1637254835.0,286047002.6,P
1637254835.9,286047002.6,P
1637254855.8,286047001.5,Y
1637254875.6,286047001.0,P
1637254895.5,286046998.3,N
1637254915.3,286046998.7,N
1637254935.1,286046998.4,N
1637254955.9,286046999.3,N
1637254975.7,286046999.5,N
1637254995.5,286046999.0,N
1637255015.4,286046998.1,N
1637255035.2,286047000.9,N
1637255055.0,286046998.7,N
1637255055.9,286046998.7,N
1637255075.8,286046998.3,N
1637255095.6,286046998.4,N
1637255115.4,286047001.2,N
1637255135.3,286046996.8,N
1637255155.1,286046996.7,N
1637255175.8,286046998.6,N
1637255195.7,286047000.5,N
1637255215.5,286047000.1,N
1637255235.3,286047002.2,N
1637255255.2,286047002.1,N
1637255275.0,286047000.2,N
1637255275.9,286047000.2,N
1637255295.7,286047001.1,N
1637255315.6,286046998.5,N
1637255335.4,286046998.4,N
1637255355.2,286046999.6,N
1637255375.1,286046997.4,N
1637255376.0,286046997.4,N
1637255395.8,286046999.4,N
1637255415.7,286046998.3,N
1637255435.5,286046998.3,N
1637255455.3,286046999.6,N
1637255475.2,286046997.8,N
1637255495.9,286046996.5,N
1637255515.7,286046996.5,N
1637255535.6,286046997.0,N
1637255555.4,286046999.0,N
1637255575.2,286046998.4,N
1637255595.1,286046998.6,N
1637255596.0,286046998.6,N
1637255615.8,286046998.2,N
1637255635.6,286047000.9,N
1637255655.5,286046999.8,N
1637255675.3,286047000.5,N
1637255695.1,286046998.5,N
1637255715.9,286047000.7,N
1637255735.7,286047002.5,N
1637255755.5,286046999.8,N
1637255775.4,286047002.4,N
1637255795.2,286047000.9,N
1637255815.0,286047000.7,N
1637255815.9,286047000.7,N
1637255835.8,286047001.2,N
1637255855.6,286046998.9,N
1637255875.4,286046998.4,N
1637255895.3,286047000.7,N
1637255915.1,286047000.2,N
1637255935.9,286047000.8,N
1637255955.7,286046998.1,N
1637255975.5,286047000.8,N
1637255995.4,286046998.2,N
1637256015.2,286046999.1,N
1637256035.0,286046998.1,N
1637256035.9,286046998.1,N
1637256055.8,286046998.5,N
1637256075.6,286046998.4,N
1637256095.4,286046999.0,N
1637256115.3,286047000.4,N
1637256135.1,286046999.9,N
1637256155.8,286047000.1,N
1637256175.7,286047000.6,N
1637256195.5,286047000.2,N
1637256215.3,286047002.5,N
1637256235.2,286047002.3,N
1637256255.0,286046999.8,N
1637256255.9,286046999.8,N
1637256275.7,286046999.8,N
1637256295.6,286047002.0,N
1637256315.4,286047001.5,N
1637256335.2,286047002.3,N
1637256355.1,286047000.4,N
1637256356.0,286047000.4,N
1637256375.8,286047000.1,N
1637256395.7,286047004.3,Y
1637256415.5,286047001.3,P
1637256435.3,286047002.0,N
1637256455.2,286047004.0,P
1637256475.9,286047001.4,N
1637256495.7,286047001.4,N
1637256515.6,286047002.5,N
1637256535.4,286047001.4,N
1637256555.2,286047001.7,N
1637256575.1,286047002.6,N
1637256576.0,286047002.6,N
1637256595.8,286047001.4,N
1637256615.6,286047001.8,N
1637256635.5,286047004.0,Y
1637256655.3,286047000.8,P
1637256675.1,286047000.9,N
1637256695.9,286047002.8,P
1637256715.7,286047001.5,N
1637256735.6,286047002.0,N
1637256755.4,286047003.9,Y
1637256775.2,286047002.3,P
1637256795.1,286046999.9,N
1637256796.0,286046999.9,N
1637256815.8,286047000.9,N
1637256835.6,286047000.0,N
1637256855.5,286046999.8,N
1637256875.3,286047002.6,N
1637256895.1,286047002.4,N
1637256915.9,286047002.1,N
1637256935.7,286047001.5,N
1637256955.5,286047001.5,N
1637256975.4,286047002.1,N
1637256995.2,286047002.3,N
1637257015.0,286047002.2,N
1637257015.9,286047002.2,N
1637257035.8,286047004.0,Y
1637257055.6,286047000.8,P
1637257075.4,286047000.8,N
1637257095.3,286047002.7,P
1637257115.1,286047000.5,N
1637257135.8,286046998.3,N
1637257155.7,286046998.5,N
1637257175.5,286047001.0,N
1637257195.4,286046999.7,N
1637257215.2,286047000.1,N
1637257235.0,286047000.2,N
1637257235.9,286047000.2,N
1637257255.8,286046999.9,N
1637257275.6,286047001.0,N
1637257295.4,286047000.8,N
1637257315.3,286047000.4,N
1637257335.1,286046999.8,N
1637257336.0,286046999.8,N
1637257355.8,286047000.4,N
1637257375.7,286047001.1,N
1637257395.5,286047000.5,N
1637257415.3,286046999.9,N
1637257435.2,286047002.3,N
1637257455.0,286046998.4,N
1637257455.9,286046998.4,N
1637257475.7,286046998.7,N
1637257495.6,286047001.1,N
1637257515.4,286046998.2,N
1637257535.2,286046999.3,N
1637257555.1,286047000.7,N
1637257556.0,286047000.7,N
1637257575.8,286047002.2,N
1637257595.7,286047002.1,N
1637257615.5,286047002.3,N
1637257635.3,286047002.2,N
1637257655.2,286047002.0,N
1637257675.9,286047004.3,Y
1637257695.7,286046999.7,P
1637257715.6,286046999.8,N
1637257735.4,286047001.5,P
1637257755.2,286047003.6,Y
1637257775.1,286047001.8,P
1637257776.0,286047001.8,N
1637257795.8,286047002.1,P
1637257815.6,286047003.8,Y
1637257835.5,286047002.7,P
1637257855.3,286047000.8,N
1637257875.1,286047000.3,N
1637257895.9,286047001.7,N
1637257915.7,286047001.6,N
1637257935.5,286047000.4,N
1637257955.4,286046998.2,N
1637257975.2,286047001.1,N
1637257995.1,286047000.8,N
1637257996.0,286047000.8,N
1637258015.8,286047000.4,N
1637258035.6,286047000.4,N
1637258055.5,286047001.3,N
1637258075.3,286047002.0,N
1637258095.1,286047001.4,N
1637258115.9,286047001.3,N
1637258135.7,286047001.7,N
1637258155.5,286047003.7,Y
1637258175.4,286047002.7,P
1637258195.2,286047004.4,P
1637258215.0,286047004.1,N
1637258215.9,286047004.1,Y
1637258235.8,286047000.3,P
1637258255.6,286047001.1,N
1637258275.4,286047000.9,N
1637258295.3,286047000.9,N
1637258315.1,286046999.7,N
1637258335.8,286047000.6,N
1637258355.7,286047001.8,N
1637258375.5,286047001.5,N
1637258395.4,286047001.3,N
